Terug naar catalogus

STARLINK-32860

ActiefCommunicatieVLEO
NORAD 62856·PAYLOAD·🇺🇸 United States

Gelanceerd Feb 1, 2025 vanaf Vandenberg Space Force Base

Loading…

Volgende Passages (komende 24 uur)

TLE

VersSource: CelesTrak SupGP

Epoch: Sep 15, 2026, 03:26 UTC

1 62856C 25022C   26258.14354167  .00053574  00000+0  15826-2 0  2587
2 62856  53.1585 326.5073 0001258  96.5168 141.6962 15.34368261    12

Volg STARLINK-32860 in realtime met AllMySat

Download on the App Store